SCP
0 0 0 0 0 0 0 0 0 0 0 0 0 0 0 0 0 0 0 0 0 0 0 0 0 0 0 0 1 1 1 2 2 2 2 3 3 3
0 0 0 0 0 0 0 0 0 0 0 0 0 0 0 0 0 0 0 0 0 0 0 0 0 0 0 0 0 1 1 1 1 2 2 3 3 3
0 0 0 0 0 0 0 0 0 0 0 0 0 0 0 0 0 0 0 0 0 0 0 0 0 0 0 0 0 0 0 0 1 1 2 3 3 3
0 0 0 0 0 0 0 0 0 0 0 0 0 0 0 0 0 0 0 0 0 0 0 0 0 0 0 0 0 0 0 0 0 1 1 2 3 2
0 0 0 0 0 0 0 0 0 0 0 0 0 0 0 0 0 0 0 0 0 0 0 0 1 1 0 0 0 0 0 0 0 0 1 1 2 2
0 0 0 0 0 0 0 0 0 0 0 0 0 0 0 0 0 0 0 0 0 0 0 0 1 1 1 1 0 0 0 0 0 0 0 1 1 1
0 0 0 0 0 0 0 0 0 0 0 0 0 0 0 0 0 0 0 0 0 0 0 1 1 1 1 1 1 0 0 0 0 0 0 0 0 0
0 0 0 0 0 0 0 0 0 0 0 0 0 0 0 0 0 0 0 0 0 0 1 1 1 1 1 1 1 0 0 0 0 0 0 0 0 0
0 0 0 0 0 0 0 0 0 0 0 0 0 0 0 0 0 0 0 0 0 0 1 1 1 1 1 1 1 0 0 0 0 0 0 0 0 0
0 0 0 0 0 0 0 0 0 0 0 0 0 0 0 0 0 0 0 0 0 0 0 1 1 1 1 1 1 0 0 0 0 0 0 0 0 0
0 0 0 0 0 0 0 0 0 0 0 0 0 0 0 0 0 0 0 0 0 0 0 0 1 1 1 1 1 0 0 0 0 0 0 0 0 0
0 0 0 0 0 0 0 0 0 0 0 0 0 0 0 0 0 0 0 0 0 0 0 0 1 1 1 1 1 1 0 0 0 0 0 0 0 0
0 0 0 0 0 0 0 0 0 0 0 0 0 0 0 0 0 0 0 0 0 0 0 0 0 1 1 1 1 1 1 0 0 0 0 0 0 0
0 0 0 0 0 0 0 0 0 0 0 0 0 0 0 0 0 0 0 0 0 0 0 0 0 0 0 1 1 1 1 1 1 0 0 0 0 0
0 0 0 0 0 0 0 0 0 0 0 0 0 0 0 0 0 0 0 0 0 0 0 0 0 0 0 0 0 1 1 1 1 0 0 0 0 0
0 0 0 0 0 0 0 0 0 0 0 0 0 0 0 0 0 0 0 0 0 0 0 0 0 0 0 0 0 0 1 1 1 0 0 0 0 0
0 0 0 0 0 0 0 0 0 0 0 0 0 0 0 0 0 0 0 0 0 0 0 0 0 0 0 0 0 0 0 0 0 0 0 0 0 0
0 0 0 0 0 0 0 0 0 0 0 0 0 0 0 0 0 0 0 0 0 0 0 0 0 0 0 0 0 0 0 0 0 0 0 0 0 0
0 0 0 0 0 0 0 0 0 0 0 0 0 0 0 0 0 0 0 0 0 0 0 0 0 0 0 0 0 0 0 0 0 0 0 0 0 0
0 0 0 0 0 0 0 0 0 0 0 0 0 0 0 0 0 0 0 0 0 0 0 0 0 0 0 0 0 0 0 0 0 0 0 0 0 0
0 0 0 0 0 0 0 0 0 0 0 0 0 0 0 0 0 0 0 0 0 0 0 0 0 0 0 0 0 0 0 0 0 0 0 0 0 0
0 0 0 0 0 0 0 0 0 0 0 0 0 0 0 0 0 0 0 0 0 0 0 0 0 0 0 0 0 0 0 0 0 0 0 0 0 0
0 0 0 0 0 0 0 0 0 0 0 0 0 0 0 0 0 0 0 0 0 0 0 0 0 0 0 0 0 0 0 0 0 0 0 0 0 0
Wind_Speed
11 11 10 9 9 10 10 10 10 12 12 12 10 9 8 8 12 12 12 15 17 18 18 16 14 13 10 9 10 13 19 21 22 23 23 24 25 25
9 10 10 8 8 8 8 8 9 10 12 11 11 12 12 10 14 13 13 18 19 19 18 16 15 12 10 8 8 12 14 16 20 23 24 23 23 22
12 12 12 11 9 8 8 8 8 9 12 12 12 12 15 14 12 11 11 12 11 16 17 16 15 11 9 8 9 11 15 15 18 21 22 22 21 20
13 13 13 12 13 11 9 10 9 10 11 14 13 12 14 13 13 12 11 10 10 13 16 16 14 11 9 9 9 11 17 18 17 19 21 20 20 19
13 13 13 14 14 12 13 11 10 10 10 11 13 11 10 10 11 11 11 10 10 11 14 15 14 11 10 9 9 10 16 20 22 22 22 21 20 20
12 12 13 14 15 15 12 12 12 12 11 10 10 10 9 9 8 6 7 7 8 8 10 10 11 11 10 10 10 10 15 21 23 23 23 22 21 20
12 12 13 17 20 16 12 13 12 10 10 9 9 9 8 8 6 5 7 6 7 6 6 8 8 7 7 8 9 10 13 19 22 23 23 23 22 21
12 12 14 15 19 20 18 18 16 13 11 9 8 9 10 9 8 7 7 5 4 2 4 6 6 6 6 5 6 8 11 15 19 22 24 23 22 21
11 12 12 14 19 13 13 17 16 16 14 11 10 10 11 10 10 9 8 6 5 4 4 4 5 7 6 5 8 8 10 13 16 19 21 23 23 22
10 12 14 15 16 17 12 12 13 10 12 10 9 9 10 10 9 9 9 9 9 6 5 3 4 5 5 5 9 10 10 12 14 17 19 21 21 22
10 11 14 15 21 23 15 14 14 11 12 16 15 13 13 13 10 6 6 5 4 2 1 2 1 2 4 4 6 10 10 11 13 15 18 20 21 20
9 10 14 19 22 22 15 14 15 13 12 12 11 11 9 9 10 6 5 5 4 2 3 3 1 1 3 2 3 5 6 9 12 14 16 19 22 15
8 9 10 21 21 21 18 14 17 16 11 11 9 8 7 6 6 6 5 5 5 4 5 5 3 2 2 2 2 3 4 5 6 9 14 19 22 17
8 9 11 20 20 19 16 20 22 17 10 9 9 8 8 8 8 8 7 6 7 8 8 6 4 3 2 2 2 3 3 4 5 6 8 15 17 17
7 12 15 17 16 13 19 21 17 11 10 10 10 10 9 9 8 7 6 5 6 6 6 5 4 3 2 1 1 3 3 2 4 6 7 9 9 13
7 10 13 13 12 14 14 13 11 11 12 10 11 10 9 9 8 8 6 6 3 2 3 4 4 2 2 2 0 3 4 4 4 7 8 7 7 9
9 7 7 8 9 9 10 10 10 11 11 11 11 11 10 10 9 8 7 6 4 4 4 5 4 3 6 6 2 4 6 7 7 9 11 11 8 7
9 7 7 8 8 9 10 10 10 11 12 11 11 11 11 10 10 9 8 7 6 5 5 4 3 1 3 6 12 3 6 8 7 8 11 14 11 8
8 7 7 7 7 8 8 9 10 11 11 11 11 11 11 11 10 10 10 8 7 6 5 5 4 1 3 3 7 14 5 9 10 9 9 12 13 10
8 8 8 7 7 7 7 8 8 9 10 10 11 11 11 11 10 10 10 10 8 7 6 6 6 5 3 3 4 6 14 6 11 14 13 14 14 19
9 8 8 7 6 6 6 6 7 8 9 10 10 11 11 10 10 10 10 13 10 8 7 6 6 6 2 4 7 6 9 17 11 11 16 17 16 13
9 9 9 8 7 6 5 5 6 7 8 9 9 10 10 10 11 11 10 10 9 8 7 6 6 5 3 6 10 10 10 13 18 23 19 12 9 12
9 9 9 8 7 5 4 4 5 5 6 7 8 9 9 10 10 10 10 9 9 9 8 7 6 7 7 8 10 11 14 13 11 13 15 21 26 29
Wind_Direction
295 288 281 276 273 270 268 268 277 290 296 302 300 299 299 290 286 283 281 281 284 285 285 284 286 290 285 284 263 230 210 198 188 183 185 190 192 194
322 311 300 293 288 285 280 278 274 279 287 293 298 297 298 291 285 280 275 278 274 273 272 272 272 277 281 276 260 214 197 189 181 180 182 185 187 189
336 333 330 323 318 314 308 300 295 290 289 293 296 298 298 293 287 277 270 265 262 259 260 261 262 263 272 270 254 210 189 186 181 178 179 181 184 184
332 331 330 329 328 326 321 313 308 301 295 297 299 299 298 297 289 279 267 257 252 250 249 252 252 251 257 263 252 213 189 186 185 181 179 180 183 183
328 329 328 326 327 328 326 322 318 311 302 295 297 299 299 297 292 278 264 252 249 244 240 242 241 239 242 254 253 220 192 185 185 183 180 179 182 182
330 328 326 323 324 325 327 328 324 316 307 300 300 304 303 305 292 285 274 251 244 238 230 227 225 224 227 240 246 224 197 188 185 181 178 177 176 176
333 330 325 326 327 329 332 331 328 321 313 310 307 309 315 322 317 308 292 279 248 234 228 219 210 207 211 224 235 219 196 188 184 181 177 174 172 173
335 332 327 328 328 330 331 334 332 325 323 318 310 312 316 320 319 315 309 288 243 211 241 223 202 199 200 209 214 207 192 184 182 179 176 173 171 171
335 332 331 330 333 325 334 336 328 326 329 324 311 312 313 318 318 316 314 306 293 318 280 224 198 200 191 201 198 202 191 182 179 177 173 171 170 169
332 331 333 333 330 344 342 334 327 329 328 321 312 311 311 312 312 305 299 295 279 261 257 241 189 193 181 185 188 192 187 181 177 174 172 169 167 165
333 335 336 337 340 350 347 338 333 337 335 330 328 324 324 324 330 321 311 295 272 246 270 282 200 175 166 177 180 181 177 176 176 174 171 169 166 162
338 338 339 345 349 352 351 343 340 342 337 332 331 331 331 329 337 331 314 303 298 306 2 335 338 143 135 143 167 168 167 169 169 171 170 167 165 165
340 340 342 349 353 353 354 351 349 347 337 333 333 337 340 339 337 326 303 284 287 306 356 344 335 2 95 119 152 161 156 149 158 165 168 166 166 166
342 342 344 350 353 354 356 357 355 353 344 341 344 348 346 343 336 324 304 277 259 269 299 314 318 350 29 113 136 133 132 141 147 151 159 162 161 154
342 342 346 351 351 352 356 359 357 354 350 350 350 348 343 338 336 332 324 301 268 257 274 283 288 315 348 42 110 133 115 100 134 139 145 153 151 146
342 337 342 348 353 354 356 358 357 357 355 350 347 346 346 349 354 351 347 342 330 320 306 311 311 322 354 356 36 124 119 118 110 111 110 106 116 133
344 338 343 347 352 355 356 358 358 357 357 353 352 353 354 356 358 358 357 358 9 358 347 347 0 60 63 32 69 104 117 110 110 115 110 96 74 94
353 348 348 347 349 351 352 354 357 359 356 353 356 357 357 358 359 1 5 8 11 5 359 347 333 1 50 46 23 67 108 110 104 106 116 112 95 75
355 351 348 344 343 344 348 351 354 356 354 355 358 359 358 360 3 5 7 8 8 6 4 358 350 359 103 83 17 14 76 117 111 100 101 109 108 99
352 348 346 342 338 338 342 346 348 353 357 356 359 0 0 2 6 6 8 8 6 6 12 15 14 11 53 102 88 31 25 82 119 114 107 100 97 99
346 343 342 340 335 333 335 338 343 351 357 356 0 1 1 4 6 6 6 8 13 13 16 12 358 2 39 89 92 70 48 47 73 118 126 121 117 113
339 338 337 336 334 331 329 331 337 348 357 1 1 1 1 4 5 7 8 8 10 10 11 12 10 22 48 100 104 99 88 75 64 64 62 80 124 137
334 332 332 333 333 329 323 323 327 341 354 359 1 2 2 4 6 7 9 12 13 15 18 28 40 52 65 89 101 102 99 94 88 79 68 78 91 104